Milan, NH

4:39 AM EDT on August 29, 2016 (GMT -0400)
Berlin Municipal

Weather History for KBML - April, 2013

Change the Weather History Date:

Wednesday, April 17, 2013

  Actual Average Record
Temperature  
Mean Temperature 41 °F -  
Max Temperature 55 °F 51 °F 82 °F (2002)
Min Temperature 28 °F 24 °F 10 °F (2014)
Degree Days  
Heating Degree Days 24    
Moisture  
Dew Point 27 °F    
Average Humidity 53    
Maximum Humidity 78    
Minimum Humidity 30    
Precipitation  
Precipitation 0.00 in - - ()
Sea Level Pressure  
Sea Level Pressure 30.21 in    
Wind  
Wind Speed 7 mph (NW)    
Max Wind Speed 14 mph    
Max Gust Speed 22 mph    
Visibility 10 miles    
Events      
Averages and records for this station are not official NWS values.
T = Trace of Precipitation, MM = Missing Value Source: NWS Daily Summary

Daily Weather History Graph

Daily Weather History Graph

Search for Another Location

Airport or City:

Trip Planner

Search our weather history database for the weather conditions in past years. The results will help you decide how hot, cold, wet, or windy it might be!

Date:

Astronomy

Apr. 17, 2013 Rise Set
Actual Time 5:56 AM EDT 7:32 PM EDT
Civil Twilight 5:26 AM EDT 8:03 PM EDT
Nautical Twilight 4:49 AM EDT 8:40 PM EDT
Astronomical Twilight 4:09 AM EDT 9:20 PM EDT
Moon 11:03 AM EDT (4/17) 1:13 AM EDT (4/17)
Length of Visible Light 14h 36m
Length of Day
13h 35m
Waxing Crescent, 42% of the Moon is Illuminated
Apr 17
Waxing Crescent
Apr 18
First Quarter
Apr 25
Full
May 2
Last Quarter
May 9
New

Hourly Weather History & Observations

Time (EDT) Temp. Windchill Dew Point Humidity Pressure Visibility Wind Dir Wind Speed Gust Speed Precip Events Conditions
12:52 AM 50.0 °F - 41.0 °F 71% 30.02 in 10.0 mi Variable 5.8 mph - N/A   Scattered Clouds
1:52 AM 44.1 °F 40.1 °F 33.1 °F 65% 30.06 in 10.0 mi NW 6.9 mph - N/A   Mostly Cloudy
2:52 AM 43.0 °F 41.3 °F 30.9 °F 62% 30.08 in 10.0 mi NW 3.5 mph - N/A   Clear
3:52 AM 43.0 °F 38.8 °F 30.9 °F 62% 30.09 in 10.0 mi Variable 6.9 mph - N/A   Clear
4:52 AM 43.0 °F 38.2 °F 30.9 °F 62% 30.10 in 10.0 mi NW 8.1 mph - N/A   Mostly Cloudy
5:52 AM 41.0 °F - 28.9 °F 62% 30.12 in 10.0 mi Calm Calm - N/A   Clear
6:52 AM 42.1 °F 36.6 °F 28.0 °F 58% 30.13 in 10.0 mi NW 9.2 mph - N/A   Clear
7:52 AM 43.0 °F 37.7 °F 28.9 °F 58% 30.15 in 10.0 mi West 9.2 mph 17.3 mph N/A   Clear
8:52 AM 46.0 °F 40.6 °F 28.9 °F 51% 30.15 in 10.0 mi WNW 11.5 mph 20.7 mph N/A   Clear
9:52 AM 46.9 °F - 27.0 °F 46% 30.19 in 10.0 mi NNW 9.2 mph - N/A   Scattered Clouds
10:52 AM 46.9 °F - 28.9 °F 50% 30.21 in 10.0 mi NW 8.1 mph 16.1 mph N/A   Overcast
11:52 AM 50.0 °F - 28.0 °F 43% 30.22 in 10.0 mi Variable 5.8 mph 21.9 mph N/A   Mostly Cloudy
12:52 PM 51.1 °F - 28.9 °F 43% 30.21 in 10.0 mi NW 11.5 mph 21.9 mph N/A   Mostly Cloudy
1:52 PM 52.0 °F - 27.0 °F 38% 30.21 in 10.0 mi NNW 10.4 mph - N/A   Partly Cloudy
2:52 PM 54.0 °F - 25.0 °F 33% 30.22 in 10.0 mi NNW 11.5 mph 20.7 mph N/A   Clear
3:52 PM 54.0 °F - 24.1 °F 31% 30.25 in 10.0 mi NNW 10.4 mph 18.4 mph N/A   Clear
4:52 PM 54.0 °F - 23.0 °F 30% 30.27 in 10.0 mi NNW 12.7 mph 21.9 mph N/A   Clear
5:52 PM 52.0 °F - 23.0 °F 32% 30.28 in 10.0 mi NNW 13.8 mph 18.4 mph N/A   Clear
6:52 PM 50.0 °F - 21.9 °F 33% 30.30 in 10.0 mi NNW 9.2 mph - N/A   Clear
7:52 PM 46.0 °F 44.8 °F 21.9 °F 39% 30.33 in 10.0 mi NNW 3.5 mph - N/A   Clear
8:52 PM 34.0 °F - 24.1 °F 67% 30.37 in 10.0 mi Calm Calm - N/A   Clear
9:52 PM 28.9 °F - 23.0 °F 78% 30.38 in 10.0 mi Calm Calm - N/A   Clear
10:52 PM 28.9 °F - 23.0 °F 78% 30.38 in 10.0 mi Calm Calm - N/A   Clear
11:52 PM 28.9 °F - 23.0 °F 78% 30.37 in 10.0 mi Calm Calm - N/A   Clear